Starlink 30705

operational
NORAD ID: 57945 Int'l Des: 2023-148 Owner: SPXS Country: US Constellation: starlink
LEOCIRCULAR

About Starlink 30705

Description loading...

Live Position

Loading 3D Globe...

Upcoming Passes

Altitude History

Altitude vs Time

uPlot chart will show altitude changes over time

Two-Line Element Set

1 57945U 23148L 25258.00965357 -.00000298 00000-0 20553-5 0 9995
2 57945 53.1599 120.3963 0001309 86.5773 273.5377 15.30187504111525
Epoch: Sep 15, 2025 • Age: 20 hours

Current Status

Altitude 492.9 km
Velocity 7.62 km/s
Sub-Earth Point -48.82°S, 57.97°E
Launch Date Sep 25, 2023
Age 1.9 years
Type internet

Technical Details

Classification Payload
Mass 730.00 kg
Dry Mass 700.00 kg
Total Mass 730.00 kg
Length 0.30 m
Diameter 4.10 m
Span 29.00 m
Shape Box + pan
Manufacturer SPXS
Bus Type Starlink V2M
Phase Status In Orbit
Owner/State SPXS/US

Large Constellations

Loading constellations...